Wind_Speed
7 8 8 9 10 10 11 10 10 11 11 11 12 13 13 13 14 14 15 15 15 15 16 16 15 15 15 15 16 16 17 17 17 17 17 17 17 17 16 16 16 16 15
9 10 10 11 12 12 12 12 12 12 13 13 14 14 14 14 14 15 15 16 16 16 17 16 16 16 16 16 16 17 17 17 17 18 18 18 18 18 17 17 16 16 15
11 11 12 13 13 13 14 14 14 14 14 15 15 15 15 16 16 16 16 16 16 17 17 17 17 17 17 17 17 17 18 18 18 18 18 19 19 19 18 17 17 16 14
14 14 14 15 16 16 16 16 15 16 16 16 17 16 16 16 16 17 17 17 17 17 18 18 18 18 18 18 18 18 18 18 18 19 19 19 18 18 17 17 16 15 14
16 16 16 17 18 18 18 18 17 17 17 17 18 18 17 17 17 17 18 18 18 18 18 19 19 18 18 18 18 19 19 19 19 19 19 18 18 17 18 17 16 15 15
19 19 19 19 20 20 20 20 19 19 19 19 19 19 18 18 18 19 19 19 19 20 20 20 20 19 18 19 19 19 19 20 20 19 18 18 17 17 17 16 15 15 15
22 22 22 22 22 22 21 22 21 21 21 20 20 20 19 19 20 20 20 21 21 21 21 21 20 20 20 20 20 20 20 20 20 20 19 19 19 17 17 16 16 16 16
25 25 25 25 24 24 24 24 24 23 22 22 21 21 21 21 21 22 22 22 23 23 23 22 22 21 21 21 21 21 21 21 21 20 19 19 19 19 18 18 18 18 18
27 28 27 28 28 27 27 27 26 25 24 24 24 24 24 23 24 24 24 24 25 24 24 24 23 23 23 23 23 23 23 23 22 22 21 20 20 20 19 19 19 19 19
30 30 30 30 30 30 30 29 28 28 27 27 26 26 26 26 27 27 27 27 27 26 26 25 25 24 25 25 25 25 24 23 23 23 22 22 22 22 22 22 21 21 21
31 31 31 31 31 31 30 30 30 30 29 29 28 27 28 28 29 29 29 28 28 28 28 27 27 26 26 26 26 25 25 24 24 24 24 24 24 24 24 23 23 23 23
32 33 33 33 33 32 32 31 31 31 31 30 30 29 30 30 30 30 30 29 29 29 29 29 28 28 27 26 26 26 26 25 26 26 26 26 26 26 25 25 25 25 25
33 33 34 34 34 33 33 33 34 34 33 32 32 32 32 33 33 32 31 31 31 31 30 30 30 29 28 28 27 27 27 27 28 27 27 27 26 26 26 26 26 26 27
34 34 34 35 35 35 36 37 36 34 33 34 34 34 34 34 34 33 33 33 33 32 32 31 31 30 30 30 29 28 28 29 29 29 28 27 27 27 27 27 27 28 28
34 35 36 36 37 37 36 36 35 35 35 35 35 35 35 34 34 34 34 34 33 33 32 31 31 30 30 30 30 30 30 30 30 30 30 29 29 29 29 29 29 29 29
36 37 37 37 38 37 36 36 36 35 35 36 36 35 35 34 34 34 34 34 34 33 32 31 31 31 31 31 31 31 31 31 31 31 31 30 30 30 30 30 30 30 30
37 38 38 39 37 36 36 36 36 36 36 36 35 35 35 34 34 34 34 33 33 33 33 32 31 31 31 32 32 32 32 32 31 31 30 31 31 30 30 30 30 31 31
38 38 38 39 38 37 37 37 36 36 36 36 35 35 35 35 34 34 34 33 33 33 33 32 32 32 33 33 33 32 32 32 31 31 30 31 31 31 31 31 31 30 30
38 38 38 38 38 37 38 37 37 36 36 36 35 34 34 34 34 34 33 33 32 33 33 33 33 33 33 33 33 33 33 32 31 31 31 31 31 31 31 31 31 30 30
40 39 39 39 39 38 37 36 36 35 35 35 35 34 34 34 35 34 33 33 33 33 33 33 34 34 33 33 33 33 33 32 31 30 30 31 31 31 31 31 31 31 31
40 40 40 40 39 38 36 36 36 36 35 35 35 35 35 35 35 34 34 34 34 34 33 34 34 34 33 32 32 31 30 30 30 31 31 32 32 32 32 32 31 31 30
39 40 40 38 37 36 36 36 35 35 35 36 36 36 35 35 35 35 34 34 34 34 34 34 33 33 32 31 30 29 30 30 30 30 31 31 31 31 32 31 31 30 30
38 38 38 36 36 36 36 35 35 35 36 36 36 36 35 34 34 34 34 34 35 35 35 34 33 33 31 30 30 31 30 29 29 30 30 30 30 30 30 30 30 30 29
36 35 34 34 34 34 34 35 35 35 35 36 36 35 34 34 34 34 34 34 34 33 32 32 32 32 31 30 30 30 30 30 30 29 29 30 30 30 30 30 30 30 30
33 33 32 32 32 32 33 33 34 34 34 34 34 33 33 33 33 33 33 33 33 32 31 31 31 31 30 30 30 30 30 30 30 30 30 30 30 30 31 31 32 32 31
30 30 30 30 30 31 31 32 32 32 31 31 32 32 32 32 32 33 33 33 32 32 32 31 31 31 31 31 31 31 31 31 31 31 32 32 32 32 32 31 31 31 31
Wind_Direction
299 310 316 318 321 327 330 331 333 332 330 328 326 326 323 321 319 314 312 313 310 311 310 310 309 306 305 306 304 301 299 297 295 295 296 296 297 299 298 296 292 291 285
296 299 303 311 313 314 315 318 321 322 323 322 321 321 320 318 316 314 313 315 311 308 310 311 309 306 304 305 303 301 300 297 294 296 296 295 297 297 295 294 292 292 287
289 293 297 302 305 305 307 311 312 313 313 313 314 314 315 316 313 313 314 316 314 312 311 309 309 306 305 304 302 302 302 300 298 296 296 296 297 296 293 292 293 292 289
283 286 291 296 299 301 302 305 304 306 307 307 309 310 312 312 311 312 314 317 316 315 313 310 308 306 304 303 303 303 303 302 300 299 297 297 298 298 295 295 293 291 288
280 281 285 290 294 296 299 300 299 300 301 302 303 304 305 308 309 310 312 312 312 313 313 312 309 307 306 307 306 305 304 303 302 300 298 297 297 297 295 296 293 290 288
278 278 281 286 289 290 293 296 294 295 296 298 297 300 303 304 304 306 308 308 308 308 310 311 310 308 308 309 308 306 305 304 303 301 298 296 296 297 295 293 291 289 290
278 278 279 281 284 286 290 292 290 291 293 296 296 297 300 301 302 304 305 307 307 308 308 308 307 305 305 304 304 304 304 303 301 298 296 295 294 293 293 291 289 288 290
277 277 278 278 281 283 286 287 287 289 291 293 294 294 296 297 298 301 304 304 304 306 307 307 304 302 300 300 301 301 301 301 300 297 295 294 292 290 287 286 286 288 290
275 276 277 277 280 281 282 283 285 288 288 288 290 291 292 292 294 296 298 300 302 303 303 303 302 299 298 298 298 298 298 298 296 294 293 292 290 288 285 284 285 286 289
275 274 275 275 278 279 279 281 282 283 284 286 287 287 288 289 291 292 294 296 298 300 299 299 298 297 297 296 296 297 296 295 294 293 292 290 289 287 284 283 283 285 287
274 272 275 274 277 278 279 279 280 283 283 283 284 285 285 286 287 289 291 292 294 296 296 295 294 294 294 294 292 293 293 293 292 292 291 290 288 286 284 282 282 282 284
273 273 272 274 276 277 279 278 277 278 281 281 282 283 283 283 284 285 287 289 290 292 292 292 292 291 292 292 292 291 290 290 291 290 289 287 286 285 284 282 281 281 281
274 274 273 275 276 277 279 279 278 279 278 279 281 282 281 282 282 283 284 285 288 289 289 289 290 289 288 289 289 288 288 288 289 288 287 286 283 283 282 280 279 280 281
272 275 277 276 278 279 278 279 279 279 279 279 282 282 282 281 281 282 282 282 283 285 286 287 287 287 286 287 287 286 287 287 286 287 286 286 284 283 282 280 280 281 282
275 276 277 278 278 278 278 279 281 282 281 281 282 282 281 280 280 280 282 282 283 284 285 285 286 285 285 285 285 284 285 285 284 284 285 284 283 282 281 282 281 280 281
275 276 276 277 276 277 278 278 279 280 281 282 282 281 281 280 280 280 281 281 282 284 284 284 284 284 283 284 284 284 284 284 283 282 283 283 283 282 282 282 281 280 282
274 275 275 277 279 277 276 276 277 279 280 282 283 281 280 280 281 281 281 281 282 283 283 282 282 282 282 282 283 283 283 283 282 281 281 282 282 282 281 281 281 281 281
275 276 277 279 279 278 277 277 278 279 280 280 280 280 279 280 281 281 281 282 282 283 283 281 281 282 281 281 282 282 282 282 281 281 280 281 280 281 281 281 281 282 282
275 277 278 278 279 278 277 277 279 280 279 278 278 279 279 280 279 279 281 282 282 282 282 282 281 281 281 281 281 282 281 280 280 280 281 281 279 279 280 282 282 282 282
276 276 277 277 278 279 278 279 280 279 277 276 277 277 278 278 278 278 279 280 282 284 283 281 280 280 280 281 282 281 280 281 280 281 281 281 279 279 279 281 281 281 281
275 276 277 277 278 278 278 279 278 276 275 276 277 277 277 277 277 277 278 279 280 282 282 282 282 281 279 280 281 280 279 279 280 282 283 283 282 280 281 282 282 282 282
275 276 277 278 279 278 278 278 277 276 275 276 277 276 276 276 275 276 277 277 278 279 280 280 280 280 280 279 279 279 280 281 282 282 282 283 283 282 283 283 283 283 283
276 276 277 277 277 275 276 277 277 277 277 275 275 276 276 276 276 276 277 278 279 279 279 279 279 278 279 278 278 279 281 283 283 283 283 282 282 283 283 284 284 284 283
277 277 278 277 277 275 275 276 276 275 275 275 275 276 276 275 275 276 278 279 279 279 279 279 278 278 278 279 280 280 280 281 283 283 283 282 282 284 284 284 282 282 282
276 277 278 278 277 276 276 275 274 274 274 274 275 276 277 276 276 276 277 279 278 278 278 279 278 278 278 279 280 281 281 282 283 283 283 283 283 284 284 283 282 280 281
276 277 278 278 278 278 278 278 277 276 274 274 274 275 277 277 275 275 275 276 277 277 277 278 278 279 279 279 280 280 281 282 283 284 284 283 283 283 282 283 282 280 280
Height
5907 5906 5904 5903 5901 5899 5898 5897 5896 5894 5893 5891 5889 5887 5885 5883 5881 5880 5878 5876 5874 5872 5870 5868 5865 5863 5861 5859 5857 5855 5853 5852 5850 5848 5846 5845 5843 5841 5839 5837 5835 5834 5832
5904 5904 5902 5901 5899 5898 5896 5895 5894 5892 5890 5889 5887 5885 5883 5880 5878 5876 5874 5872 5870 5868 5866 5864 5862 5859 5857 5855 5853 5851 5849 5848 5846 5844 5842 5840 5839 5837 5835 5833 5831 5829 5828
5902 5901 5899 5898 5897 5895 5894 5892 5891 5889 5888 5886 5884 5882 5879 5877 5875 5873 5870 5868 5867 5865 5863 5861 5858 5856 5854 5852 5850 5847 5845 5843 5841 5839 5838 5836 5834 5832 5830 5828 5827 5825 5824
5898 5897 5896 5895 5893 5892 5890 5889 5888 5886 5884 5882 5880 5878 5876 5873 5871 5869 5867 5865 5863 5861 5859 5856 5854 5852 5849 5847 5846 5843 5841 5839 5837 5835 5833 5831 5829 5827 5825 5824 5823 5821 5820
5894 5893 5892 5891 5889 5888 5886 5885 5883 5881 5880 5878 5877 5875 5872 5870 5868 5866 5864 5861 5859 5857 5855 5852 5850 5847 5845 5843 5841 5839 5837 5835 5832 5830 5828 5826 5824 5823 5821 5820 5818 5817 5816
5889 5888 5887 5886 5885 5883 5881 5879 5878 5876 5875 5873 5872 5870 5868 5866 5864 5861 5859 5857 5855 5852 5850 5848 5845 5843 5841 5839 5837 5835 5833 5830 5828 5826 5824 5822 5820 5818 5817 5815 5814 5813 5812
5884 5883 5882 5880 5879 5877 5875 5874 5872 5871 5869 5868 5866 5865 5863 5861 5859 5857 5854 5852 5850 5847 5845 5843 5840 5838 5836 5834 5832 5830 5828 5825 5823 5821 5819 5817 5815 5814 5812 5811 5810 5809 5808
5878 5877 5876 5874 5873 5872 5870 5868 5867 5865 5864 5863 5861 5859 5857 5856 5854 5851 5849 5847 5844 5842 5840 5837 5835 5833 5831 5829 5827 5825 5822 5820 5817 5815 5813 5811 5810 5809 5807 5806 5805 5804 5802
5871 5870 5869 5868 5866 5865 5864 5862 5860 5859 5858 5856 5855 5853 5852 5850 5848 5845 5843 5841 5838 5836 5834 5832 5829 5827 5825 5823 5821 5819 5816 5814 5812 5810 5808 5806 5804 5803 5802 5801 5799 5798 5797
5862 5861 5861 5859 5858 5857 5856 5855 5853 5852 5850 5849 5848 5846 5845 5843 5841 5839 5836 5834 5832 5830 5827 5825 5823 5821 5819 5816 5814 5812 5810 5808 5806 5803 5802 5800 5798 5797 5796 5795 5794 5793 5791
5854 5853 5852 5850 5850 5849 5847 5846 5845 5844 5842 5841 5839 5838 5837 5835 5833 5831 5829 5827 5825 5822 5820 5818 5816 5814 5811 5809 5807 5805 5803 5801 5799 5797 5795 5793 5792 5790 5789 5788 5787 5786 5785
5846 5845 5843 5842 5841 5840 5839 5837 5836 5835 5833 5832 5831 5829 5828 5826 5825 5823 5821 5819 5817 5815 5812 5810 5808 5806 5804 5802 5800 5798 5795 5793 5791 5789 5788 5786 5785 5783 5782 5780 5779 5778 5777
5837 5836 5835 5834 5832 5831 5829 5828 5827 5826 5824 5823 5822 5820 5819 5817 5815 5814 5812 5810 5808 5806 5804 5802 5800 5798 5796 5793 5791 5790 5788 5785 5783 5781 5780 5778 5776 5775 5773 5772 5771 5770 5769
5828 5827 5826 5824 5823 5821 5820 5819 5817 5816 5815 5813 5811 5810 5808 5807 5805 5803 5802 5800 5798 5796 5795 5793 5791 5789 5787 5784 5783 5781 5779 5777 5775 5773 5771 5770 5768 5767 5765 5764 5763 5762 5761
5818 5817 5816 5814 5813 5812 5810 5809 5808 5806 5805 5803 5801 5799 5798 5796 5795 5793 5791 5790 5788 5787 5785 5783 5781 5779 5777 5775 5773 5771 5770 5768 5766 5764 5763 5761 5759 5758 5756 5755 5754 5753 5752
5807 5806 5805 5803 5802 5801 5800 5799 5797 5796 5795 5793 5790 5788 5786 5785 5784 5783 5781 5779 5778 5776 5775 5773 5771 5769 5768 5766 5764 5762 5760 5758 5757 5755 5753 5752 5750 5749 5747 5746 5744 5743 5742
5797 5795 5794 5792 5790 5789 5788 5787 5786 5785 5783 5782 5780 5778 5776 5775 5773 5772 5771 5769 5768 5766 5764 5763 5761 5759 5758 5756 5754 5752 5750 5749 5747 5745 5744 5742 5741 5739 5737 5736 5735 5734 5732
5786 5784 5783 5781 5779 5778 5777 5776 5775 5773 5772 5770 5769 5767 5765 5764 5763 5762 5760 5759 5757 5756 5754 5752 5751 5749 5748 5746 5744 5742 5741 5739 5737 5736 5734 5733 5731 5729 5728 5726 5725 5724 5722
5775 5774 5772 5770 5769 5766 5765 5764 5763 5761 5759 5758 5757 5756 5755 5753 5752 5751 5750 5749 5747 5745 5743 5742 5740 5738 5737 5735 5734 5732 5731 5729 5727 5726 5724 5723 5721 5720 5718 5717 5715 5714 5712
5763 5761 5760 5758 5757 5755 5753 5752 5751 5749 5748 5747 5746 5745 5744 5742 5741 5740 5739 5738 5736 5735 5733 5731 5729 5728 5726 5725 5723 5722 5720 5719 5717 5716 5714 5712 5711 5709 5708 5707 5705 5704 5702
5750 5749 5747 5745 5744 5742 5741 5740 5739 5738 5737 5736 5735 5734 5733 5731 5730 5729 5728 5727 5726 5724 5722 5720 5719 5717 5715 5714 5713 5711 5710 5709 5707 5706 5704 5703 5701 5700 5698 5696 5695 5693 5692
5738 5736 5735 5733 5732 5730 5729 5728 5727 5726 5725 5724 5723 5722 5721 5720 5719 5718 5717 5716 5715 5713 5712 5710 5708 5707 5705 5704 5703 5701 5700 5699 5697 5696 5694 5692 5691 5689 5688 5686 5685 5683 5682
5725 5724 5722 5720 5719 5718 5717 5716 5715 5715 5714 5713 5712 5710 5709 5708 5707 5707 5706 5705 5704 5702 5700 5699 5698 5697 5696 5694 5693 5692 5690 5689 5687 5686 5684 5683 5681 5679 5678 5676 5675 5674 5672
5713 5711 5710 5708 5707 5706 5705 5704 5704 5703 5702 5701 5700 5699 5698 5697 5696 5695 5694 5693 5692 5691 5690 5689 5688 5686 5685 5684 5683 5681 5680 5679 5677 5676 5674 5673 5671 5670 5668 5666 5665 5664 5663
5701 5700 5698 5697 5696 5695 5693 5693 5692 5691 5691 5690 5689 5688 5687 5686 5685 5684 5684 5683 5682 5681 5680 5679 5678 5676 5675 5674 5673 5671 5670 5669 5667 5665 5664 5662 5661 5659 5658 5656 5654 5653 5652
5690 5689 5687 5686 5685 5684 5683 5682 5681 5680 5679 5679 5678 5677 5677 5676 5675 5674 5673 5672 5671 5670 5669 5668 5667 5666 5664 5663 5662 5661 5660 5658 5657 5655 5653 5652 5651 5649 5647 5645 5644 5642 5641